Location: Caltech
(34.1382°N, 118.1253°W)
Time: 02:22:16
(UTC-07:00)

Daily predictions for brighter satellites

Satellite Brightness Start Highest point End
(mag) Time Altitude Azimuth Time Altitude Azimuth Time Altitude Azimuth
CZ-3 R/B 4.4 03:12:35 44° S 03:16:08 46° SSE 03:27:24 10° E
Atlas Centaur 2 4.5 03:25:40 17° ESE 03:25:40 17° ESE 03:26:53 10° E
ADEOS II 4.4 03:22:16 10° NE 03:25:33 19° E 03:25:33 19° E
Cosmos 2263 Rocket 3.8 03:37:37 30° E 03:37:37 30° E 03:41:38 10° NE
Okean O Rocket 4.0 03:59:07 10° NE 04:02:13 19° E 04:03:20 17° ESE
Cosmos 1850 Rocket 4.0 04:26:52 76° NNE 04:26:52 76° NNE 04:31:48 10° NNE
Cosmos 1975 4.2 04:33:24 10° N 04:37:16 40° E 04:41:07 10° SSE
Cosmos 1607 3.9 04:41:15 58° W 04:41:49 60° WNW 04:48:06 10° NNE
Okean 1 4.1 04:43:54 43° N 04:43:54 43° N 04:46:40 10° N
GOES 2 Rocket 4.0 04:46:11 34° SSE 04:46:11 34° SSE 04:49:19 10° ESE
CZ-3 Stage 3 4.2 04:45:58 13° SSE 04:46:57 14° SE 04:49:39 10° ESE
PSLV R/B 3.4 04:42:59 10° NNE 04:47:11 84° E 04:47:16 83° SE
Cosmos 1975 Rocket 3.6 04:49:43 45° NNW 04:49:43 45° NNW 04:52:59 10° N
USA 238 DEB 4.4 04:43:30 14° S 04:49:14 51° ESE 04:55:56 10° NE
USA 238 4.4 04:43:33 14° S 04:49:21 51° ESE 04:56:03 10° NE
GPS 2-05 Rocket1 4.0 04:54:59 34° ESE 04:54:59 34° ESE 04:56:53 10° ESE
Meteor 1-18 Rocket 4.3 04:52:15 44° SW 04:54:02 64° W 04:59:56 10° N
CZ-4B DEB 4.4 04:49:35 10° NNE 04:55:03 72° ESE 05:00:29 10° S
Cosmos 1570 Rocket 4.1 04:50:38 10° NNW 04:55:56 76° ENE 05:01:15 10° SSE
Cosmos 1455 Rocket 4.0 04:54:51 10° N 04:59:03 48° E 05:03:12 10° SSE
CZ-4B R/B 2.9 04:56:57 10° N 05:00:35 57° NW 05:00:35 57° NW
Cosmos 2208 Rocket 4.1 04:56:50 10° NNW 05:02:08 77° ENE 05:07:19 10° SSE
IRS-1C Rocket 4.2 05:00:11 10° NNE 05:05:28 74° ESE 05:10:44 10° S
ADEOS II 2.4 05:00:52 10° N 05:05:47 42° WNW 05:06:29 40° W
ISS -1.2 05:11:07 11° S 05:11:07 11° S 05:11:17 10° S
Cosmos 1743 3.4 05:05:34 10° N 05:09:25 54° E 05:13:13 10° SSE
Atlas Centaur 2 2.2 05:08:18 36° WSW 05:10:29 58° S 05:15:19 10° E
Cosmos 1844 Rocket 3.8 05:07:01 10° S 05:12:20 44° ESE 05:17:41 10° NE
Cosmos 332 Rocket 4.1 05:07:40 10° N 05:12:27 67° ENE 05:17:12 10° SSE
Cosmos 1536 Rocket 3.8 05:09:39 10° S 05:13:56 70° E 05:18:16 10° NNE
Cosmos 1943 3.2 05:09:07 10° NNW 05:14:39 54° WSW 05:20:08 10° S
DELTA 2 R/B (1) 4.2 05:11:52 24° WNW 05:14:56 50° N 05:20:21 10° E
ASTRO E2 4.4 05:14:56 19° S 05:16:24 24° SSE 05:19:39 10° ESE
Cosmos 371 Rocket 3.8 05:12:48 10° N 05:17:38 63° ENE 05:22:25 10° SSE
CZ-4B R/B 4.2 05:14:38 10° NNE 05:18:33 65° E 05:22:38 10° S
Cosmos 2263 Rocket 3.0 05:19:21 28° W 05:20:29 30° WNW 05:25:27 10° N
PAYLOAD B 4.2 05:15:37 10° N 05:21:03 61° WNW 05:26:26 10° SSW
Intelsat 5-2 Rocket 4.5 05:24:10 14° S 05:25:05 16° SSE 05:27:40 10° SE
Cosmos 1437 Rocket 3.3 05:22:31 10° NNW 05:26:07 34° W 05:29:46 10° SSW
CZ-2C R/B 4.1 05:23:49 10° SSE 05:28:26 69° ENE 05:33:10 10° N
Meteor 1-12 Rocket 4.4 05:22:48 10° NNW 05:28:42 58° W 05:34:33 10° S
ATLAS 3B R/B 2.8 05:23:29 13° SW 05:30:18 73° WNW 05:37:31 10° NNE
Meteor PRIRODA 3.6 05:27:16 10° N 05:30:55 63° WNW 05:34:33 10° SSW
Cosmos 1553 Rocket 4.1 05:25:05 10° S 05:31:14 80° E 05:37:21 10° N
Meteor 1-13 Rocket 4.3 05:27:14 10° SSW 05:33:10 74° W 05:39:07 10° N
Okean O Rocket 2.4 05:34:48 10° N 05:38:34 30° WNW 05:40:47 19° WSW
Meteor 1-4 Rocket 2.3 05:38:17 10° NNW 05:41:45 72° W 05:45:11 10° S
Cosmos 1025 Rocket 3.9 05:44:01 10° S 05:48:08 51° E 05:52:16 10° NNE
USA 116 3.2 05:44:50 10° SSE 05:48:12 88° ENE 05:51:21 10° NNW
S3M 4.0 05:44:14 10° S 05:50:27 78° W 05:56:48 10° N
Cosmos 1844 3.9 05:47:57 10° SSW 05:53:30 77° ESE 05:59:09 10° NNE
BREEZE-M DEB (TANK) 4.3 05:52:53 10° NW 05:56:02 23° NNE 05:58:06 10° E
Meteor 2-4 Rocket 3.7 05:52:54 10° SSW 05:58:19 59° W 06:03:56 10° N
CZ-4B R/B 3.9 05:53:58 10° N 05:58:31 30° WNW 06:03:06 10° SW
Cosmos 1271 Rocket 4.3 05:55:41 10° N 05:59:28 41° E 06:03:16 10° SSE
USA 215 4.5 05:54:22 10° ESE 06:00:24 42° NE 06:06:27 10° NNW
Tiangong 1 1.8 05:58:17 10° NW 06:00:49 40° NNE 06:03:23 10° E
COSMO-SKYMED 1 3.2 05:57:31 10° SSE 06:01:47 60° ENE 06:06:04 10° N
Cosmos 1486 Rocket 4.0 05:57:37 10° SSW 06:02:49 62° WNW 06:08:00 10° N
Delta 2 Rocket 4.2 05:58:03 12° WSW 06:03:17 87° SSE 06:09:06 10° ENE
Cosmos 841 Rocket 4.0 05:59:26 10° N 06:04:37 66° ENE 06:09:47 10° SSE
Cosmos 468 Rocket 4.2 05:59:41 10° NNW 06:04:48 48° WSW 06:09:51 10° S
IDEFIX/ARIANE 42P 3.5 06:03:20 10° NNE 06:08:30 55° E 06:13:37 10° S
Okean 2 3.4 06:05:19 10° S 06:09:23 87° E 06:13:30 10° N
MTI 4.3 06:10:21 10° SSW 06:13:22 36° W 06:16:25 10° NNW
NOSS 3-2 (A) 3.4 06:09:51 10° SW 06:15:43 76° WNW 06:22:08 10° NNE
GEOS 3 Rocket 3.9 06:13:29 10° SE 06:18:38 78° NE 06:23:54 10° NNW
EO 1 Del DPAF 3.6 06:15:51 10° S 06:19:29 42° W 06:23:08 10° NNW
Cosmos 2292 Rocket 4.2 06:16:00 10° N 06:20:53 82° W 06:27:29 10° S
